[[{"header":{"parameterUnit":"m.s-1","parameterCategory":1,"la1":30.2991,"la2":30.254,"lo1":-89.0895,"lo2":-89.0444,"dy":0.0017,"dx":0.0017,"nx":28,"ny":28,"refTime":"2023-09-03T03:00:00:Z","depth":0,"parameterNumber":2,"parameterNumberName":"U-component_of_WINDS"},"data":[0,0,0,0,0,0,0,0,0,0,0,0,0,0,0,0,0,0,0,0,0,0,0,0,0,0,0,0,0,0,0,0,0,0,0,0,0,0,0,0,0,0,0,0,0,0,0,0,0,0,0,0,0,0,0,0,0,0,-2.0073,-2.0076,0,-2.0346,-2.0349,-2.0352,-2.0512,-2.0512,-2.0513,-2.0513,-2.0797,-2.0804,-2.0811,0,0,0,0,0,0,0,0,0,0,0,0,0,-1.9694,-1.97,-2.0073,-2.0076,-2.008,-2.0346,-2.0349,-2.0353,-2.0511,-2.0512,-2.0513,-2.0514,-2.0795,-2.0803,-2.0812,0,0,0,0,0,0,0,0,0,0,0,0,0,-1.9902,-1.9702,-2.0072,-2.0191,-2.0204,-2.0345,-2.0349,-2.0354,-2.0511,-2.0512,-2.0513,-2.0514,-2.0792,-2.0803,-2.0813,-2.0858,0,0,-2.0845,-2.0849,0,0,0,0,0,0,0,0,-1.989,-1.9916,-2.017,-2.0183,-2.0198,-2.0396,-2.032,-2.0523,-2.0511,-2.0395,-2.0513,-2.0515,-2.0663,-2.0684,-2.0734,-2.0872,-2.0884,-2.0846,-2.0852,-2.0857,-2.086,0,0,0,0,0,0,0,-1.9875,-1.9905,-2.0181,-2.0173,-2.019,-2.0232,-2.0263,-2.0359,-2.052,-2.0405,-2.0417,-2.0447,-2.0671,-2.0723,-2.0742,-2.0888,-2.0845,-2.0855,-2.0861,-2.0865,-2.108,-2.108,0,0,0,0,0,0,-1.9841,-1.9892,-2.0172,-2.0189,-2.0043,-2.0238,-2.0272,-2.0331,-2.052,-2.0549,-2.0446,-2.0453,-2.0705,-2.0729,-2.0752,-2.0819,-2.0856,-2.0866,-2.0872,-2.1081,-2.108,-2.1079,0,0,0,0,0,0,-1.9833,-1.9865,-2.0161,-2.0044,-2.0085,-2.0243,-2.0309,-2.0336,-2.0388,-2.0551,-2.0581,-2.0469,-2.0707,-2.0737,-2.0831,-2.0831,-2.0871,-2.0881,-2.1081,-2.108,-2.108,-2.0952,0,0,0,0,0,0,-1.9821,-1.9861,-1.9878,-2.0043,-2.0091,-2.0233,-2.0309,-2.0341,-2.0405,-2.0418,-2.058,-2.0608,-2.071,-2.0815,-2.0841,-2.0846,-2.0889,-2.1082,-2.1081,-2.108,-2.0957,-2.0947,-2.0938,0,0,0,0,0,-1.9807,-1.9832,-1.9878,-1.9911,-2.0115,-2.0233,-2.026,-2.0375,-2.0405,-2.0425,-2.0529,-2.0603,-2.0827,-2.0823,-2.0854,-2.0862,-2.1083,-2.1081,-2.108,-2.0961,-2.0949,-2.0938,0,0,0,0,0,0,-1.9664,-1.9856,-1.9909,-1.9988,-2.0093,-2.026,-2.0288,-2.0358,-2.0458,-2.0466,-2.0606,-2.0641,-2.0721,-2.0802,-2.0794,-2.0918,-2.0963,-2.0968,-2.0862,-2.0851,-2.0842,-2.0821,-2.0897,0,0,0,0,0,-1.9641,-1.9719,-1.9883,-1.9937,-1.9987,-2.0128,-2.0183,-2.0263,-2.0378,-2.0424,-2.0535,-2.0645,-2.0741,-2.0801,-2.0898,-2.097,-2.1008,-2.0991,-2.0982,-2.0973,-2.0976,-2.1021,-2.1016,-2.1075,-2.1075,-2.1075,0,0,-1.9595,-1.971,-1.9751,-1.9911,-2.0002,-2.0081,-2.0164,-2.0244,-2.0305,-2.0437,-2.0531,-2.0617,-2.075,-2.0833,-2.0875,-2.0902,-2.0968,-2.0972,-2.0963,-2.0971,-2.1019,-2.1014,-2.1008,-2.1074,-2.1074,-2.1075,0,0,-1.9553,-1.9646,-1.9702,-1.9791,-1.9927,-2.0021,-2.0034,-2.0192,-2.0253,-2.035,-2.0451,-2.0527,-2.0688,-2.0778,-2.0845,-2.0839,-2.0911,-2.0867,-2.0818,-2.0861,-2.0856,-2.0853,-2.0851,-2.0849,-2.0869,-2.0869,-2.0869,0,-1.9479,-1.9601,-1.9722,-1.9796,-1.9865,-1.9986,-2.0045,-2.0126,-2.0287,-2.0332,-2.036,-2.0566,-2.0664,-2.0771,-2.0769,-2.0819,-2.084,-2.0848,-2.0847,-2.0844,-2.0843,-2.0843,-2.0842,-2.0862,-2.0863,-2.0864,-2.0864,0,-1.9504,-1.9587,-1.9616,-1.9767,-1.9839,-1.9904,-2.0038,-2.0096,-2.017,-2.0261,-2.036,-2.0482,-2.0606,-2.0638,-2.0711,-2.0756,-2.0769,-2.082,-2.0868,-2.0829,-2.0832,-2.0832,-2.0853,-2.0856,-2.0858,-2.0859,0,0,-1.9377,-1.9595,-1.9603,-1.9674,-1.9834,-1.9901,-1.9974,-2.0094,-2.0142,-2.025,-2.0316,-2.045,-2.0499,-2.0575,-2.066,-2.0697,-2.0686,-2.0745,-2.075,-2.073,-2.0744,-2.0704,-2.0702,-2.0735,-2.0736,-2.0736,-2.0733,0,-1.9357,-1.9491,-1.9603,-1.9696,-1.9776,-1.9893,-1.9957,-2.0063,-2.0151,-2.0233,-2.0332,-2.0425,-2.0482,-2.0529,-2.0572,-2.0678,-2.069,-2.068,-2.0799,-2.0802,-2.0761,-2.0703,-2.0661,-2.0652,-2.0735,-2.0735,-2.0735,0,-1.9351,-1.9453,-1.9553,-1.9707,-1.9744,-1.9799,-1.9919,-1.9995,-2.0119,-2.0181,-2.0266,-2.0355,-2.044,-2.048,-2.06,-2.059,-2.0646,-2.0706,-2.0709,-2.0724,-2.0765,-2.0717,-2.0652,-2.065,-2.0738,-2.0738,-2.0737,0,-1.9248,-1.9411,-1.9492,-1.9549,-1.973,-1.9766,-1.9843,-1.9968,-2.0034,-2.014,-2.0184,-2.0299,-2.0362,-2.045,-2.0568,-2.0587,-2.0676,-2.0726,-2.0731,-2.0728,-2.0744,-2.0741,-2.0686,-2.078,-2.078,-2.078,-2.078,0,-1.9214,-1.9271,-1.9449,-1.9498,-1.9567,-1.9697,-1.9761,-1.9849,-1.996,-2.0031,-2.0141,-2.0205,-2.0358,-2.0442,-2.0536,-2.0621,-2.0649,-2.0702,-2.0726,-2.0692,-2.0685,-2.073,-2.0734,-2.0779,-2.0779,-2.0779,-2.078,0,-1.911,-1.9231,-1.9328,-1.9491,-1.9534,-1.9577,-1.9718,-1.9772,-1.9867,-1.9955,-1.9984,-2.0134,-2.0238,-2.0365,-2.0511,-2.0574,-2.0651,-2.0687,-2.0608,-2.0622,-2.062,-2.0618,-2.0592,-2.0596,-2.0685,-2.0684,-2.0683,0,-1.908,-1.9126,-1.9294,-1.9349,-1.9422,-1.9509,-1.9577,-1.9708,-1.9774,-1.9919,-1.9956,-2.0069,-2.0166,-2.0328,-2.0451,-2.0564,-2.0604,-2.0587,-2.0622,-2.0586,-2.0604,-2.06,-2.0606,-2.0578,-2.0576,-2.0575,-2.0574,0,-1.9013,-1.9071,-1.9163,-1.9276,-1.9353,-1.9449,-1.955,-1.9589,-1.9742,-1.9811,-1.9918,-1.9993,-2.0142,-2.0253,-2.0382,-2.0465,-2.0545,-2.0562,-2.0569,-2.0534,-2.0486,-2.0513,-2.0583,-2.0562,-2.0563,-2.0564,-2.0565,-2.0565,-1.8946,-1.8993,-1.9119,-1.9218,-1.9308,-1.94,-1.9459,-1.9561,-1.9652,-1.9782,-1.9855,-1.9961,-2.0087,-2.0268,-2.0348,-2.0434,-2.0463,-2.0473,-2.0476,-2.0476,-2.0466,-2.0473,-2.0458,-2.0459,-2.0459,-2.046,-2.046,0,-1.8885,-1.8972,-1.9062,-1.9199,-1.9278,-1.9346,-1.9462,-1.9523,-1.9614,-1.9724,-1.9817,-1.9942,-2.0051,-2.0183,-2.0301,-2.0345,-2.0385,-2.0372,-2.037,-2.0388,-2.0433,-2.0415,-2.0337,-2.0337,-2.0337,-2.0337,-2.0337,-2.0337,-1.8863,-1.8946,-1.9019,-1.9149,-1.9237,-1.934,-1.94,-1.9487,-1.9575,-1.9709,-1.9799,-1.9884,-2.0004,-2.0132,-2.0236,-2.0273,-2.0311,-2.0287,-2.0334,-2.0374,-2.0384,-2.0394,-2.0378,-2.0294,-2.0294,-2.0282,-2.0281,-2.0281]},{"header":{"parameterUnit":"m.s-1","parameterCategory":1,"la1":30.2991,"la2":30.254,"lo1":-89.0895,"lo2":-89.0444,"dy":0.0017,"dx":0.0017,"nx":28,"ny":28,"refTime":"2023-09-03T03:00:00:Z","depth":0,"parameterNumber":3,"parameterNumberName":"V-component_of_WINDS"},"data":[0,0,0,0,0,0,0,0,0,0,0,0,0,0,0,0,0,0,0,0,0,0,0,0,0,0,0,0,0,0,0,0,0,0,0,0,0,0,0,0,0,0,0,0,0,0,0,0,0,0,0,0,0,0,0,0,0,0,4.9972,4.9975,0,5.0281,5.0285,5.0288,5.038,5.0378,5.0377,5.0375,5.0683,5.0693,5.0702,0,0,0,0,0,0,0,0,0,0,0,0,0,4.9453,4.9462,4.9972,4.9976,4.998,5.0281,5.0285,5.0289,5.038,5.0378,5.0376,5.0375,5.068,5.0691,5.0703,0,0,0,0,0,0,0,0,0,0,0,0,0,4.9711,4.9465,4.9971,5.0062,5.0073,5.028,5.0285,5.029,5.0381,5.0378,5.0376,5.0374,5.0676,5.069,5.0705,5.0841,0,0,5.0749,5.0755,0,0,0,0,0,0,0,0,4.9697,4.973,5.0044,5.0056,5.0069,5.029,5.0215,5.0475,5.0381,5.0263,5.0375,5.0372,5.0554,5.0578,5.0641,5.0856,5.0869,5.075,5.0759,5.0765,5.0769,0,0,0,0,0,0,0,4.9679,4.9718,5.0094,5.0049,5.0064,5.0084,5.0118,5.0265,5.0418,5.0273,5.0281,5.0317,5.056,5.0627,5.0649,5.0873,5.075,5.0763,5.0772,5.0777,5.1216,5.1218,0,0,0,0,0,0,4.9647,4.9702,5.0084,5.0103,4.9873,5.0095,5.0134,5.0221,5.0416,5.0444,5.0318,5.032,5.0603,5.0632,5.066,5.0833,5.0765,5.0779,5.0787,5.1213,5.1216,5.1219,0,0,0,0,0,0,4.9635,4.968,5.0072,4.9905,4.9957,5.0107,5.0204,5.0228,5.0296,5.0451,5.0477,5.0359,5.0602,5.064,5.0796,5.0844,5.0785,5.0798,5.1209,5.1214,5.1218,5.1178,0,0,0,0,0,0,4.962,4.9675,4.973,4.9906,4.9965,5.0205,5.0207,5.0236,5.0321,5.0326,5.0496,5.0522,5.0603,5.0774,5.081,5.0863,5.081,5.1205,5.1211,5.1216,5.1176,5.1181,5.1185,0,0,0,0,0,4.9601,4.9705,4.9733,4.9778,5.0038,5.0207,5.0241,5.0335,5.0325,5.038,5.048,5.0516,5.0834,5.0789,5.0831,5.0889,5.1203,5.121,5.1216,5.1174,5.118,5.1185,0,0,0,0,0,0,4.9528,4.9729,4.9762,4.9927,5.005,5.0222,5.0295,5.0339,5.0465,5.0463,5.0573,5.061,5.0759,5.084,5.0787,5.1031,5.1019,5.1034,5.0973,5.098,5.0984,5.096,5.0822,0,0,0,0,0,4.9531,4.9655,4.9824,4.9952,5.0013,5.0143,5.0221,5.0283,5.0413,5.0465,5.0576,5.0699,5.0827,5.0908,5.1034,5.1189,5.1226,5.1249,5.1254,5.1257,5.1268,5.1355,5.1367,5.1241,5.1241,5.1241,0,0,4.9539,4.9664,4.9735,4.9941,5.0043,5.0166,5.0186,5.0315,5.0407,5.0484,5.0639,5.0725,5.0869,5.1025,5.11,5.1097,5.1311,5.1265,5.1267,5.1276,5.1363,5.1375,5.1385,5.1246,5.1245,5.1244,0,0,4.9615,4.9723,4.9842,4.9945,5.0102,5.0188,5.0217,5.0384,5.0445,5.0603,5.0664,5.0773,5.0991,5.1091,5.1171,5.1287,5.1324,5.1325,5.1347,5.1431,5.1441,5.145,5.149,5.1503,5.1336,5.1336,5.1336,0,4.9603,4.9794,4.9897,5.0024,5.0112,5.0191,5.0311,5.0405,5.0593,5.0651,5.0647,5.0922,5.1025,5.1205,5.1234,5.1296,5.133,5.1304,5.1432,5.1442,5.1452,5.1491,5.1506,5.1335,5.1335,5.1335,5.1335,0,4.9771,4.9902,4.9979,5.0162,5.0259,5.0381,5.0501,5.0586,5.0641,5.0727,5.0886,5.1013,5.1166,5.1214,5.1267,5.1402,5.1396,5.1411,5.14,5.1461,5.15,5.1516,5.1333,5.1333,5.1334,5.1334,0,0,4.9807,5.0048,5.0074,5.0158,5.0337,5.0439,5.0565,5.0718,5.0788,5.0915,5.1022,5.1205,5.122,5.131,5.1376,5.145,5.1532,5.1456,5.1461,5.1464,5.1687,5.1673,5.1689,5.1559,5.1563,5.1565,5.1674,0,4.9905,5.0135,5.0232,5.0417,5.0538,5.0616,5.0725,5.0845,5.093,5.1043,5.1136,5.1264,5.1275,5.133,5.1407,5.1506,5.1578,5.15,5.1657,5.1661,5.1616,5.171,5.1696,5.1792,5.169,5.1693,5.1695,0,5.0049,5.018,5.0377,5.0542,5.0597,5.0694,5.0841,5.095,5.1088,5.1144,5.1246,5.1308,5.1441,5.1424,5.1607,5.1551,5.1622,5.168,5.1686,5.1702,5.168,5.1726,5.1826,5.1839,5.172,5.1718,5.1716,0,5.0053,5.0279,5.0427,5.0496,5.0693,5.0759,5.0843,5.0979,5.1065,5.1193,5.125,5.1391,5.1467,5.1575,5.1673,5.1651,5.1846,5.1837,5.1894,5.1892,5.1929,5.1925,5.2039,5.1978,5.1978,5.1978,5.1977,0,5.015,5.0267,5.0431,5.0521,5.0654,5.0765,5.0892,5.0982,5.1103,5.121,5.1285,5.1384,5.1509,5.1623,5.1701,5.184,5.1874,5.1921,5.194,5.1914,5.1907,5.1959,5.1954,5.1982,5.1981,5.198,5.1979,0,5.0176,5.0291,5.0457,5.063,5.0677,5.0767,5.0914,5.1004,5.1093,5.1228,5.1266,5.1404,5.1543,5.1653,5.1832,5.1884,5.203,5.2052,5.1984,5.1994,5.2044,5.2036,5.2193,5.2219,5.2142,5.2142,5.2143,0,5.0229,5.0322,5.0506,5.0585,5.067,5.0795,5.0884,5.0996,5.1085,5.1249,5.1318,5.1463,5.1584,5.1802,5.1917,5.2055,5.2079,5.2125,5.21,5.207,5.2078,5.207,5.2079,5.2126,5.2126,5.2127,5.2127,0,5.0311,5.0364,5.049,5.0637,5.0742,5.0862,5.0983,5.1043,5.1176,5.1272,5.1416,5.151,5.1696,5.1837,5.1988,5.2072,5.2121,5.2134,5.2155,5.2127,5.2083,5.2106,5.1989,5.2129,5.2129,5.2129,5.2129,5.2129,5.0352,5.0437,5.0581,5.0719,5.0823,5.0935,5.1028,5.113,5.1253,5.1414,5.1472,5.162,5.1755,5.1963,5.2049,5.2164,5.2167,5.2197,5.2204,5.2209,5.2205,5.2067,5.2192,5.2192,5.2192,5.2192,5.2193,0,5.0436,5.0533,5.0659,5.0828,5.0936,5.0977,5.1114,5.1201,5.1331,5.1454,5.1573,5.1738,5.1877,5.2004,5.2148,5.2216,5.2242,5.225,5.2244,5.2263,5.2195,5.2162,5.2226,5.2226,5.2226,5.2226,5.2226,5.2226,5.0492,5.0639,5.0709,5.0907,5.1003,5.1151,5.1225,5.1328,5.1428,5.161,5.1726,5.1809,5.1934,5.2088,5.2216,5.225,5.2299,5.23,5.2339,5.2273,5.2268,5.2263,5.2233,5.231,5.2311,5.2398,5.2398,5.2399]}]]